星链-30080 (STARLINK-30080 )

导读 | 星芒AI

STARLINK-30080 是 SpaceX 星链(Starlink)卫星互联网项目中的第 30080 颗卫星。该卫星属于低轨通信卫星,旨在为全球用户提供高速互联网服务。它采用先进的推进系统和激光通信技术,以提升网络效率和稳定性。该卫星的发射有助于扩展星链的覆盖范围,特别是在偏远和网络基础设施薄弱的地区。作为星链计划的一部分,STARLINK-30080 有助于实现 SpaceX 构建全球宽带网络的目标。

基本信息
目录编号:
56705
目录名称:
STARLINK-30080
国际标识:
2023-067T
轨道中心:
EARTH
卫星名称:
星链-30080
卫星全名:
星链-30080 (STARLINK-30080 )
卫星状态:
在轨 (已飞行944 天)
发射日期:
2023-05-19 UTC
国别 :
美国 (US)
星等 :
--
轨道信息
数据来源 国际轨道数据
星历时间: 2025-12-18T14:25:57+0800
11小时前
查看轨道信息
半长轴: 6937.209km
偏心率: 0.0001208
轨道倾角: 43.004°
近地点辐角 271.458°
升交点赤经 343.825°
平近点角 88.612°
近地点: 558.235km
远地点: 559.913km
周期: 95.838分钟
每日圈数: 15.025385
详细信息
固有亮度:
5
最大亮度:
0.3
卫星平台:
Starlink v2.0 mini
覆盖范围:
全球
运营商:
太空探索技术公司
运营商所在国:
美国
制造商(研发单位):
太空探索技术公司
制造商所在国:
美国
使用方式:
暂无
卫星简介
星链(Starlink)计划是由太空探索技术公司(SpaceX)提出的一个巨型低轨卫星互联网星座项目,计划在2019年至2024年间在太空搭建由约1.2万颗卫星组成的“星链”网络,其中1584颗将部署在地球上空550千米处的近地轨道,并从2020年开始工作。该卫星仍在工作。
2D轨道图
3D轨道图
轨道高度分析图
轨道倾角分析图
轨道综合分析图
查看轨道综合分析图